Flag for Pakistan Weather past 2 weeks in Karachi, Pakistan

Now
81 °F

Passing clouds.


Feels Like: 85 °F
Forecast: 82 / 88 °F
Wind: 12 mph from Southwest

Location: Karachi Airport

Current Time: Sep 21, 2014 at 1:38:35 AM

Latest Report: Sep 21, 2014 at 12:55 AM


Visibility: 4 mi

Pressure: 29.74 "Hg

Humidity: 74%

Dew point: 72 °F

Location of KarachiLocation

Historic Weather in Karachi — Graph

°F

Karachi temperature yesterday

Maximum temperature yesterday: 90 °F (at 1:25 PM)
Minimum temperature yesterday: 81 °F (at 12:25 AM)
Average temperature yesterday: 84 °F

Past Weeks' High & Low Weather Summary

 TemperatureHumidityPressure
High95 °F (Sep 8, 12:25 PM)84% (Sep 14, 2:55 AM)29.83 "Hg (Sep 14, 2:55 AM)
Low81 °F (Sep 6, 3:55 AM)44% (Sep 17, 12:55 PM)29.56 "Hg (Sep 6, 3:25 AM)
Average85 °F64%29.69 "Hg
* Reported Sep 6 12:25 AM — Sep 21 12:25 AM, Karachi, Weather by CustomWeather, © 2014

Note: Actual official high and low records may vary slightly from our data, if they occured in-between our weather recording intervals... More about our weather records

Advertising

Karachi weather history for previous 24 hours

 ConditionsComfort  
Time TempWeatherWind HumidityBarometerVisibility
12:25 AM
Sep 21
81 °FPassing clouds.13 mph74%29.74 "Hg4 mi
11:55 PM
Sep 20
81 °FPassing clouds.9 mph74%29.74 "Hg4 mi
10:55 PM81 °FPassing clouds.12 mph74%29.74 "Hg4 mi
6:25 PM84 °FPartly sunny.17 mph66%29.68 "Hg4 mi
5:55 PM84 °FPartly sunny.15 mph66%29.68 "Hg4 mi
5:25 PM84 °FPartly sunny.16 mph66%29.68 "Hg4 mi
3:55 PM88 °FPartly sunny.20 mph55%29.65 "Hg4 mi
3:25 PM88 °FScattered clouds.21 mph55%29.65 "Hg4 mi
2:25 PM88 °FPartly sunny.20 mph59%29.68 "Hg4 mi
1:55 PM90 °FPartly sunny.20 mph55%29.68 "Hg4 mi
1:25 PM90 °FScattered clouds.21 mph55%29.71 "Hg4 mi
12:55 PM88 °FScattered clouds.21 mph59%29.71 "Hg4 mi
12:25 PM88 °FScattered clouds.20 mph59%29.74 "Hg4 mi
11:55 AM88 °FScattered clouds.20 mph59%29.74 "Hg4 mi
11:25 AM88 °FScattered clouds.21 mph59%29.74 "Hg4 mi
10:55 AM86 °FScattered clouds.17 mph62%29.77 "Hg4 mi
10:25 AM86 °FScattered clouds.17 mph62%29.77 "Hg4 mi
9:55 AM84 °FScattered clouds.16 mph66%29.77 "Hg4 mi
9:25 AM84 °FPartly sunny.15 mph66%29.77 "Hg4 mi
8:55 AM84 °FPartly sunny.9 mph66%29.74 "Hg4 mi
8:25 AM82 °FPartly sunny.14 mph66%29.74 "Hg4 mi
7:55 AM82 °FScattered clouds.15 mph66%29.74 "Hg4 mi
7:25 AM81 °FScattered clouds.16 mph74%29.74 "Hg4 mi
6:25 AM81 °FPartly sunny.12 mph74%29.71 "Hg4 mi
4:55 AM81 °FPassing clouds.12 mph70%29.68 "Hg4 mi
4:25 AM81 °FPassing clouds.12 mph70%29.68 "Hg4 mi
3:55 AM81 °FPassing clouds.14 mph70%29.71 "Hg4 mi
3:25 AM81 °FPassing clouds.12 mph74%29.71 "Hg4 mi
3:00 AM81 °FPassing clouds.14 mph70%29.71 "Hg4 mi
2:25 AM81 °FPassing clouds.9 mph70%29.71 "Hg4 mi
1:55 AM81 °FPassing clouds.14 mph70%29.71 "Hg4 mi
1:25 AM81 °FPassing clouds.12 mph70%29.74 "Hg4 mi
Weather by CustomWeather, © 2014

See weather overviewHow to use our weather pages